カタログに戻る

STARLINK-30577

運用中通信VLEO
NORAD 58053·PAYLOAD·🇺🇸 United States

打ち上げ Oct 13, 2023 から Cape Canaveral Space Force Station

Loading…

次のパス (今後24時間)

TLE

最新Source: CelesTrak SupGP

元期: Sep 14, 2026, 22:06 UTC

1 58053C 23158C   26257.92131944  .00037816  00000+0  13697-2 0  2574
2 58053  43.0012  38.2904 0001608 272.3130   0.7367 15.27560092    13

AllMySatでSTARLINK-30577をリアルタイム追跡

Download on the App Store